This is the latest recevied weather packets stored in our database for station/object NO4D. If no packets are shown the sender has not sent any weather packets the latest 10 day(s).
| Time | Temp. | Humidity | Pressure | Rain* | Wind** | Luminosity | Snow |
|---|---|---|---|---|---|---|---|
| 1777648827 | 16.11° C | 56% | 1016.4 hPa | 0 mm | - | 312 W/m² | - |
| 1777648524 | 15.56° C | 54% | 1016 hPa | 0 mm | - | 332 W/m² | - |
| 1777648221 | 16.11° C | 54% | 1016.2 hPa | 0 mm | - | 248 W/m² | - |
| 1777647915 | 15.56° C | 57% | 1016.1 hPa | 0 mm | - | 280 W/m² | - |
| 1777647613 | 15.56° C | 54% | 1016 hPa | 0 mm | - | 278 W/m² | - |
| 1777647309 | 16.11° C | 53% | 1016 hPa | 0 mm | - | 394 W/m² | - |
| 1777647007 | 16.11° C | 53% | 1015.9 hPa | 0 mm | - | 303 W/m² | - |
| 1777646702 | 16.11° C | 54% | 1015.9 hPa | 0 mm | - | 649 W/m² | - |
| 1777646398 | 15.56° C | 56% | 1016.1 hPa | 0 mm | - | 607 W/m² | - |
| 1777646095 | 15.56° C | 54% | 1015.8 hPa | 0 mm | - | 586 W/m² | - |
| 1777645791 | 15° C | 54% | 1015.8 hPa | 0 mm | - | 633 W/m² | - |
| 1777645490 | 15° C | 55% | 1015.8 hPa | 0 mm | - | 266 W/m² | - |
| 1777645190 | 15° C | 56% | 1016 hPa | 0 mm | - | 554 W/m² | - |
| 1777644886 | 15° C | 57% | 1015.8 hPa | 0 mm | - | 386 W/m² | - |
| 1777644585 | 14.44° C | 58% | 1016 hPa | 0 mm | - | 615 W/m² | - |
| 1777644280 | 14.44° C | 61% | 1016.1 hPa | 0 mm | - | 327 W/m² | - |
| 1777643976 | 13.89° C | 60% | 1016.2 hPa | 0 mm | - | 347 W/m² | - |
| 1777643674 | 13.89° C | 61% | 1016.3 hPa | 0 mm | - | 462 W/m² | - |
| 1777643371 | 13.89° C | 62% | 1016.4 hPa | 0 mm | - | 213 W/m² | - |
| 1777643067 | 13.89° C | 63% | 1016.2 hPa | 0 mm | - | 232 W/m² | - |
| 1777642764 | 13.33° C | 64% | 1016.3 hPa | 0 mm | - | 168 W/m² | - |
| 1777642461 | 13.33° C | 64% | 1016 hPa | 0 mm | - | 177 W/m² | - |
| 1777642158 | 12.78° C | 65% | 1016.3 hPa | 0 mm | - | 147 W/m² | - |
| 1777641855 | 12.78° C | 63% | 1016.5 hPa | 0 mm | - | 137 W/m² | - |
| 1777641555 | 12.78° C | 64% | 1016.5 hPa | 0 mm | - | 126 W/m² | - |
* Rain latest hour (hover to see other rain measurements)
** Current wind speed in m/s (hover to see current wind gust speed)